{"data":{"norad_id":47361,"epoch":"2026-09-20T02:54:40.439232Z","epoch_age_seconds":54716,"freshness":"FRESH","line1":"1 47361U 21005N   26263.12130138 -.00000566  00000+0 -64592-5 0  9996","line2":"2 47361  53.1605 212.5816 0002124 145.3242 214.7898 15.31694974313160","mean_motion":15.31694974,"eccentricity":0.0002124,"inclination_deg":53.1605,"raan_deg":212.5816,"arg_perigee_deg":145.3242,"mean_anomaly_deg":214.7898,"bstar":-6.4592e-6,"rev_number":31316,"period_min":94.013496449587,"perigee_km":469.30027285506,"apogee_km":472.20968216711,"semimajor_km":6848.8919775111,"source":"CELESTRAK","updated_at":"2026-09-20T09:00:38.590293Z"}}